Weather History for St. Joseph, MO

Change the Weather History Date:

Sunday, December 14, 2014

  Actual Average Record
Temperature  
Mean Temperature 57 °F 29 °F  
Max Temperature 62 °F 39 °F 64 °F (1933)
Min Temperature 51 °F 20 °F -8 °F (1914)
Degree Days  
Heating Degree Days 8 36  
Month to date heating degree days 394 466  
Since 1 July heating degree days 1640 1577  
Cooling Degree Days 0 0  
Month to date cooling degree days 0 0  
Year to date cooling degree days 1182 1221  
Growing Degree Days 7 (Base 50)    
Moisture  
Dew Point 52 °F    
Average Humidity 80    
Maximum Humidity 93    
Minimum Humidity 67    
Precipitation  
Precipitation 0.33 in 0.06 in 0.71 in (1989)
Month to date precipitation 0.47 0.70  
Year to date precipitation 31.42 34.78  
Sea Level Pressure  
Sea Level Pressure 29.87 in    
Wind  
Wind Speed 13 mph (SSE)    
Max Wind Speed 26 mph    
Max Gust Speed 33 mph    
Visibility 7 miles    
Events Rain    
T = Trace of Precipitation, MM = Missing Value Source: NWS Daily Summary

Daily Weather History Graph

Daily Weather History Graph

Search for Another Location

Airport:

Trip Planner

Search our weather history database for the weather conditions in past years. The results will help you decide how hot, cold, wet, or windy it might be!

Date:

Astronomy

Dec. 14, 2014 Rise Set
Actual Time 7:32 AM CST 4:55 PM CST
Civil Twilight 7:02 AM CST 5:26 PM CST
Nautical Twilight 6:28 AM CST 6:00 PM CST
Astronomical Twilight 5:55 AM CST 6:32 PM CST
Moon No Moon Rise 12:26 PM CST (12/14)
Length of Visible Light 10h 23m
Length of Day
9h 22m
Waning Gibbous, 48% of the Moon is Illuminated
Dec 14
Waning Gibbous
Dec 21
New
Dec 28
First Quarter
Jan 4
Full
Jan 13
Last Quarter

Hourly Weather History & Observations

Time (CST) Temp. Dew Point Humidity Pressure Visibility Wind Dir Wind Speed Gust Speed Precip Events Conditions
12:53 AM 55.0 °F 52.0 °F 89% 29.97 in 6.0 mi SSE 9.2 mph - N/A   Overcast
1:50 AM 55.4 °F 51.8 °F 88% 29.97 in 7.0 mi South 6.9 mph - N/A   Overcast
1:53 AM 55.0 °F 53.1 °F 93% 29.96 in 7.0 mi South 8.1 mph - N/A   Overcast
2:53 AM 55.9 °F 53.1 °F 90% 29.97 in 7.0 mi South 10.4 mph - N/A   Overcast
3:53 AM 55.0 °F 52.0 °F 89% 29.96 in 7.0 mi South 11.5 mph - N/A   Overcast
4:53 AM 55.0 °F 52.0 °F 89% 29.95 in 7.0 mi South 12.7 mph - N/A   Overcast
5:00 AM 55.0 °F 52.0 °F 89% 29.94 in 7.0 mi SSE 10.4 mph - N/A   Overcast
5:38 AM 55.0 °F 52.0 °F 89% 29.95 in 7.0 mi South 11.5 mph - N/A   Overcast
5:53 AM 55.0 °F 52.0 °F 89% 29.95 in 7.0 mi South 10.4 mph - N/A   Overcast
6:48 AM 53.6 °F 51.8 °F 94% 29.95 in 6.0 mi South 10.4 mph - N/A   Overcast
6:53 AM 54.0 °F 52.0 °F 93% 29.95 in 6.0 mi South 12.7 mph - N/A   Overcast
7:53 AM 55.0 °F 52.0 °F 89% 29.94 in 5.0 mi South 13.8 mph - N/A   Overcast
8:15 AM 55.0 °F 53.1 °F 93% 29.94 in 6.0 mi South 15.0 mph - N/A   Overcast
8:46 AM 55.9 °F 53.1 °F 90% 29.94 in 6.0 mi South 16.1 mph - N/A   Overcast
8:53 AM 55.9 °F 52.0 °F 87% 29.94 in 7.0 mi South 16.1 mph - N/A   Overcast
9:53 AM 57.0 °F 52.0 °F 83% 29.95 in 8.0 mi South 11.5 mph - N/A   Overcast
10:00 AM 57.0 °F 52.0 °F 83% 29.95 in 8.0 mi South 11.5 mph - N/A   Overcast
10:53 AM 57.9 °F 53.1 °F 84% 29.94 in 10.0 mi South 15.0 mph - N/A   Overcast
11:06 AM 59.0 °F 53.1 °F 81% 29.93 in 10.0 mi South 15.0 mph - N/A   Overcast
11:53 AM 59.0 °F 52.0 °F 78% 29.91 in 10.0 mi South 10.4 mph - N/A   Overcast
12:53 PM 59.0 °F 52.0 °F 78% 29.88 in 10.0 mi South 12.7 mph - N/A   Overcast
1:53 PM 59.0 °F 52.0 °F 78% 29.87 in 10.0 mi SSE 11.5 mph - N/A   Overcast
2:24 PM 61.0 °F 52.0 °F 72% 29.87 in 10.0 mi SSE 11.5 mph - N/A   Overcast
2:53 PM 62.1 °F 52.0 °F 70% 29.85 in 10.0 mi SSE 12.7 mph - N/A   Overcast
3:53 PM 61.0 °F 52.0 °F 72% 29.84 in 10.0 mi SE 12.7 mph - N/A   Overcast
4:53 PM 61.0 °F 52.0 °F 72% 29.83 in 10.0 mi ESE 9.2 mph - N/A   Overcast
5:53 PM 60.1 °F 52.0 °F 75% 29.81 in 10.0 mi ESE 9.2 mph - N/A   Overcast
6:53 PM 57.9 °F 51.1 °F 78% 29.79 in 10.0 mi SE 15.0 mph - N/A   Scattered Clouds
7:53 PM 57.9 °F 51.1 °F 78% 29.78 in 10.0 mi ESE 16.1 mph 20.7 mph N/A   Mostly Cloudy
8:53 PM 55.9 °F 51.1 °F 84% 29.78 in 10.0 mi SE 15.0 mph - 0.02 in   Overcast
9:53 PM 55.0 °F 52.0 °F 89% 29.75 in 4.0 mi SE 21.9 mph 26.5 mph 0.07 in Rain Rain
10:51 PM 53.6 °F 51.8 °F 94% 29.76 in 3.0 mi SE 13.8 mph - 0.14 in Rain Rain
10:53 PM 54.0 °F 52.0 °F 93% 29.75 in 4.0 mi SE 15.0 mph - 0.15 in Rain Rain
11:08 PM 54.0 °F 52.0 °F 93% 29.75 in 4.0 mi SE 17.3 mph 23.0 mph 0.02 in Rain Light Rain
11:12 PM 54.0 °F 52.0 °F 93% 29.76 in 5.0 mi South 21.9 mph 27.6 mph 0.03 in Rain Light Rain
11:20 PM 53.1 °F 48.9 °F 86% 29.76 in 6.0 mi SSW 21.9 mph 33.4 mph 0.03 in Rain Light Rain
11:28 PM 52.0 °F 48.0 °F 86% 29.77 in 7.0 mi SSW 19.6 mph 27.6 mph 0.05 in Rain Rain
11:35 PM 52.0 °F 48.9 °F 89% 29.77 in 6.0 mi SSW 15.0 mph - 0.06 in Rain Rain
11:53 PM 51.1 °F 48.9 °F 92% 29.75 in 7.0 mi South 9.2 mph - 0.09 in Rain Light Rain